Time,TemperatureF,DewpointF,PressureIn,WindDirection,WindDirectionDegrees,WindSpeedMPH,WindSpeedGustMPH,Humidity,HourlyPrecipIn,Conditions,Clouds,dailyrainin,SoftwareType,DateUTC
2013-02-06 00:00:00,43.5,34.0,29.59,South,173,4.0,12.0,69,0.00,,,0.00,Weather View 32 v70,2013-02-06 08:00:00,
2013-02-06 00:09:00,43.5,33.6,29.59,SSE,160,3.0,11.0,68,0.00,,,0.00,Weather View 32 v70,2013-02-06 08:09:00,
2013-02-06 00:15:00,43.5,33.3,29.59,South,187,4.0,11.0,67,0.00,,,0.00,Weather View 32 v70,2013-02-06 08:15:00,
2013-02-06 00:25:00,43.5,32.9,29.59,SSE,167,3.0,11.0,66,0.00,,,0.00,Weather View 32 v70,2013-02-06 08:25:00,
2013-02-06 00:35:00,43.3,32.7,29.59,SSE,147,8.0,11.0,66,0.00,,,0.00,Weather View 32 v70,2013-02-06 08:35:00,
2013-02-06 00:40:00,43.3,32.3,29.59,SE,131,0.0,11.0,65,0.00,,,0.00,Weather View 32 v70,2013-02-06 08:40:00,
2013-02-06 00:49:00,43.2,32.2,29.59,NNW,333,4.0,11.0,65,0.00,,,0.00,Weather View 32 v70,2013-02-06 08:49:00,
2013-02-06 00:54:00,43.2,32.2,29.59,SSW,200,3.0,11.0,65,0.00,,,0.00,Weather View 32 v70,2013-02-06 08:54:00,
2013-02-06 01:00:00,43.2,32.2,29.59,SW,232,0.0,11.0,65,0.00,,,0.00,Weather View 32 v70,2013-02-06 09:00:00,
2013-02-06 01:09:00,43.2,32.6,29.62,NW,321,0.0,11.0,66,0.00,,,0.00,Weather View 32 v70,2013-02-06 09:09:00,
2013-02-06 01:15:00,43.2,32.9,29.62,SE,126,6.0,11.0,67,0.00,,,0.00,Weather View 32 v70,2013-02-06 09:15:00,
2013-02-06 01:24:00,43.3,33.1,29.62,SSE,158,6.0,11.0,67,0.00,,,0.00,Weather View 32 v70,2013-02-06 09:24:00,
2013-02-06 01:29:00,43.3,33.1,29.62,South,191,7.0,11.0,67,0.00,,,0.00,Weather View 32 v70,2013-02-06 09:29:00,
2013-02-06 01:34:00,43.3,33.1,29.62,South,177,0.0,11.0,67,0.00,,,0.00,Weather View 32 v70,2013-02-06 09:34:00,
2013-02-06 01:40:00,43.3,33.1,29.62,SSE,162,3.0,11.0,67,0.00,,,0.00,Weather View 32 v70,2013-02-06 09:40:00,
2013-02-06 01:45:00,43.3,33.1,29.62,SE,138,3.0,11.0,67,0.00,,,0.00,Weather View 32 v70,2013-02-06 09:45:00,
2013-02-06 01:54:00,43.3,33.1,29.62,South,186,5.0,11.0,67,0.00,,,0.00,Weather View 32 v70,2013-02-06 09:54:00,
2013-02-06 02:00:00,43.3,32.7,29.62,SW,227,4.0,11.0,66,0.00,,,0.00,Weather View 32 v70,2013-02-06 10:00:00,
2013-02-06 02:09:00,43.2,32.2,29.62,South,186,4.0,11.0,65,0.00,,,0.00,Weather View 32 v70,2013-02-06 10:09:00,
2013-02-06 02:14:00,43.0,32.0,29.62,South,183,4.0,11.0,65,0.00,,,0.00,Weather View 32 v70,2013-02-06 10:14:00,
2013-02-06 02:19:00,43.0,32.0,29.62,South,171,4.0,11.0,65,0.00,,,0.00,Weather View 32 v70,2013-02-06 10:19:00,
2013-02-06 02:25:00,42.8,31.8,29.62,SSW,193,3.0,11.0,65,0.00,,,0.00,Weather View 32 v70,2013-02-06 10:25:00,
2013-02-06 02:30:00,42.8,32.2,29.62,South,177,5.0,11.0,66,0.00,,,0.00,Weather View 32 v70,2013-02-06 10:30:00,
2013-02-06 02:40:00,42.8,32.6,29.62,SSW,198,3.0,12.0,67,0.00,,,0.00,Weather View 32 v70,2013-02-06 10:40:00,
2013-02-06 02:45:00,42.8,32.6,29.62,SSW,202,6.0,12.0,67,0.00,,,0.00,Weather View 32 v70,2013-02-06 10:45:00,
2013-02-06 02:54:00,42.8,33.0,29.62,SSW,192,3.0,12.0,68,0.00,,,0.00,Weather View 32 v70,2013-02-06 10:54:00,
2013-02-06 02:59:00,42.8,33.0,29.62,WSW,258,0.0,12.0,68,0.00,,,0.00,Weather View 32 v70,2013-02-06 10:59:00,
2013-02-06 03:05:00,43.0,33.1,29.62,SSW,199,5.0,12.0,68,0.00,,,0.00,Weather View 32 v70,2013-02-06 11:05:00,
2013-02-06 03:14:00,43.0,33.1,29.62,SSW,202,3.0,12.0,68,0.00,,,0.00,Weather View 32 v70,2013-02-06 11:14:00,
2013-02-06 03:20:00,43.0,33.1,29.62,South,184,3.0,12.0,68,0.00,,,0.00,Weather View 32 v70,2013-02-06 11:20:00,
2013-02-06 03:27:00,43.0,33.1,29.62,SSW,199,8.0,12.0,68,0.00,,,0.00,Weather View 32 v70,2013-02-06 11:27:00,
2013-02-06 03:34:00,43.0,33.1,29.62,SW,214,3.0,12.0,68,0.00,,,0.00,Weather View 32 v70,2013-02-06 11:34:00,
2013-02-06 03:39:00,43.0,33.1,29.65,South,170,4.0,12.0,68,0.00,,,0.00,Weather View 32 v70,2013-02-06 11:39:00,
2013-02-06 03:44:00,43.0,33.1,29.65,SSE,168,4.0,9.0,68,0.00,,,0.00,Weather View 32 v70,2013-02-06 11:44:00,
2013-02-06 03:50:00,43.0,33.1,29.65,South,179,3.0,9.0,68,0.00,,,0.00,Weather View 32 v70,2013-02-06 11:50:00,
2013-02-06 03:59:00,43.0,33.1,29.65,SSW,193,4.0,9.0,68,0.00,,,0.00,Weather View 32 v70,2013-02-06 11:59:00,
2013-02-06 04:05:00,43.0,33.1,29.65,South,186,5.0,9.0,68,0.00,,,0.00,Weather View 32 v70,2013-02-06 12:05:00,
2013-02-06 04:10:00,43.0,33.1,29.65,ESE,119,4.0,10.0,68,0.00,,,0.00,Weather View 32 v70,2013-02-06 12:10:00,
2013-02-06 04:19:00,43.0,32.8,29.65,South,173,4.0,10.0,67,0.00,,,0.00,Weather View 32 v70,2013-02-06 12:19:00,
2013-02-06 04:25:00,43.0,32.8,29.65,SSE,157,3.0,10.0,67,0.00,,,0.00,Weather View 32 v70,2013-02-06 12:25:00,
2013-02-06 04:30:00,43.0,32.4,29.65,South,176,5.0,10.0,66,0.00,,,0.00,Weather View 32 v70,2013-02-06 12:30:00,
2013-02-06 04:35:00,43.0,32.4,29.65,SSW,202,3.0,10.0,66,0.00,,,0.00,Weather View 32 v70,2013-02-06 12:35:00,
2013-02-06 04:44:00,43.0,32.8,29.65,SE,146,6.0,10.0,67,0.00,,,0.00,Weather View 32 v70,2013-02-06 12:44:00,
2013-02-06 04:49:00,43.0,32.8,29.65,SSW,194,2.0,10.0,67,0.00,,,0.00,Weather View 32 v70,2013-02-06 12:49:00,
2013-02-06 04:54:00,43.0,32.8,29.65,South,182,2.0,10.0,67,0.00,,,0.00,Weather View 32 v70,2013-02-06 12:54:00,
2013-02-06 05:00:00,43.0,32.8,29.65,SSW,209,4.0,10.0,67,0.00,,,0.00,Weather View 32 v70,2013-02-06 13:00:00,
2013-02-06 05:05:00,43.0,32.8,29.65,SSW,205,4.0,10.0,67,0.00,,,0.00,Weather View 32 v70,2013-02-06 13:05:00,
2013-02-06 05:14:00,43.0,32.8,29.65,SW,217,8.0,10.0,67,0.00,,,0.00,Weather View 32 v70,2013-02-06 13:14:00,
2013-02-06 05:20:00,43.0,32.8,29.65,East,98,4.0,9.0,67,0.00,,,0.00,Weather View 32 v70,2013-02-06 13:20:00,
2013-02-06 05:25:00,43.0,33.1,29.65,SE,141,3.0,9.0,68,0.00,,,0.00,Weather View 32 v70,2013-02-06 13:25:00,
2013-02-06 05:30:00,43.0,33.1,29.65,SSW,197,4.0,9.0,68,0.00,,,0.00,Weather View 32 v70,2013-02-06 13:30:00,
2013-02-06 05:40:00,43.0,33.1,29.68,SW,216,0.0,9.0,68,0.00,,,0.00,Weather View 32 v70,2013-02-06 13:40:00,
2013-02-06 05:49:00,43.0,33.5,29.68,SSE,163,4.0,10.0,69,0.00,,,0.00,Weather View 32 v70,2013-02-06 13:49:00,
2013-02-06 05:55:00,43.0,33.5,29.68,SSE,156,3.0,10.0,69,0.00,,,0.00,Weather View 32 v70,2013-02-06 13:55:00,
2013-02-06 06:05:00,43.0,33.5,29.68,SSW,205,3.0,10.0,69,0.00,,,0.00,Weather View 32 v70,2013-02-06 14:05:00,
2013-02-06 06:14:00,43.0,33.5,29.68,SE,141,5.0,10.0,69,0.00,,,0.00,Weather View 32 v70,2013-02-06 14:14:00,
2013-02-06 06:20:00,43.0,33.1,29.68,South,189,5.0,10.0,68,0.00,,,0.00,Weather View 32 v70,2013-02-06 14:20:00,
2013-02-06 06:29:00,43.0,33.1,29.68,SSW,195,6.0,10.0,68,0.00,,,0.00,Weather View 32 v70,2013-02-06 14:29:00,
2013-02-06 06:34:00,43.0,33.1,29.68,South,174,0.0,11.0,68,0.00,,,0.00,Weather View 32 v70,2013-02-06 14:34:00,
2013-02-06 06:40:00,43.0,33.1,29.68,SSW,195,0.0,11.0,68,0.00,,,0.00,Weather View 32 v70,2013-02-06 14:40:00,
2013-02-06 06:49:00,42.8,32.6,29.68,SW,216,3.0,11.0,67,0.00,,,0.00,Weather View 32 v70,2013-02-06 14:49:00,
2013-02-06 06:54:00,42.8,32.6,29.68,WSW,238,4.0,11.0,67,0.00,,,0.00,Weather View 32 v70,2013-02-06 14:54:00,
2013-02-06 06:59:00,42.8,32.6,29.68,SE,129,4.0,11.0,67,0.00,,,0.00,Weather View 32 v70,2013-02-06 14:59:00,
2013-02-06 07:05:00,42.8,32.6,29.68,SSE,163,6.0,11.0,67,0.00,,,0.00,Weather View 32 v70,2013-02-06 15:05:00,
2013-02-06 07:10:00,43.0,32.8,29.68,SSE,159,6.0,11.0,67,0.00,,,0.00,Weather View 32 v70,2013-02-06 15:10:00,
2013-02-06 07:19:00,42.8,32.6,29.68,South,184,4.0,13.0,67,0.00,,,0.00,Weather View 32 v70,2013-02-06 15:19:00,
2013-02-06 07:24:00,42.8,32.2,29.68,South,174,3.0,13.0,66,0.00,,,0.00,Weather View 32 v70,2013-02-06 15:24:00,
2013-02-06 07:29:00,42.6,32.0,29.68,SE,134,6.0,13.0,66,0.00,,,0.00,Weather View 32 v70,2013-02-06 15:29:00,
2013-02-06 07:35:00,42.4,31.5,29.68,South,175,5.0,13.0,65,0.00,,,0.00,Weather View 32 v70,2013-02-06 15:35:00,
2013-02-06 07:45:00,42.4,31.9,29.68,South,188,4.0,13.0,66,0.00,,,0.00,Weather View 32 v70,2013-02-06 15:45:00,
2013-02-06 07:54:00,42.4,31.9,29.68,South,175,3.0,13.0,66,0.00,,,0.00,Weather View 32 v70,2013-02-06 15:54:00,
2013-02-06 07:59:00,42.4,31.9,29.68,South,180,5.0,13.0,66,0.00,,,0.00,Weather View 32 v70,2013-02-06 15:59:00,
2013-02-06 08:10:00,42.6,32.0,29.68,SE,142,4.0,13.0,66,0.00,,,0.00,Weather View 32 v70,2013-02-06 16:10:00,
2013-02-06 08:20:00,42.8,31.8,29.68,SSW,198,5.0,10.0,65,0.00,,,0.00,Weather View 32 v70,2013-02-06 16:20:00,
2013-02-06 08:30:00,42.8,31.5,29.68,South,175,5.0,15.0,64,0.00,,,0.00,Weather View 32 v70,2013-02-06 16:30:00,
2013-02-06 08:39:00,43.0,31.2,29.68,SSE,166,4.0,15.0,63,0.00,,,0.00,Weather View 32 v70,2013-02-06 16:39:00,
2013-02-06 08:45:00,43.0,30.8,29.68,SW,235,5.0,15.0,62,0.00,,,0.00,Weather View 32 v70,2013-02-06 16:45:00,
2013-02-06 08:54:00,43.2,31.0,29.68,South,189,4.0,15.0,62,0.00,,,0.00,Weather View 32 v70,2013-02-06 16:54:00,
2013-02-06 08:59:00,43.2,30.6,29.68,SSW,200,5.0,15.0,61,0.00,,,0.00,Weather View 32 v70,2013-02-06 16:59:00,
2013-02-06 09:04:00,43.3,30.4,29.68,SW,214,4.0,15.0,60,0.00,,,0.00,Weather View 32 v70,2013-02-06 17:04:00,
2013-02-06 09:10:00,43.3,30.0,29.68,SSW,210,4.0,15.0,59,0.00,,,0.00,Weather View 32 v70,2013-02-06 17:10:00,
2013-02-06 09:19:00,43.5,29.7,29.68,SSW,204,9.0,15.0,58,0.00,,,0.00,Weather View 32 v70,2013-02-06 17:19:00,
2013-02-06 09:25:00,43.5,29.7,29.68,SE,137,4.0,15.0,58,0.00,,,0.00,Weather View 32 v70,2013-02-06 17:25:00,
2013-02-06 09:31:00,43.7,29.4,29.68,East,99,3.0,13.0,57,0.00,,,0.00,Weather View 32 v70,2013-02-06 17:31:00,
2013-02-06 09:39:00,43.9,29.2,29.68,SSW,203,3.0,13.0,56,0.00,,,0.00,Weather View 32 v70,2013-02-06 17:39:00,
2013-02-06 09:45:00,43.9,29.2,29.68,SSE,168,5.0,13.0,56,0.00,,,0.00,Weather View 32 v70,2013-02-06 17:45:00,
2013-02-06 09:54:00,44.1,28.5,29.68,SE,127,5.0,13.0,54,0.00,,,0.00,Weather View 32 v70,2013-02-06 17:54:00,
2013-02-06 10:00:00,44.2,28.2,29.68,South,173,5.0,13.0,53,0.00,,,0.00,Weather View 32 v70,2013-02-06 18:00:00,
2013-02-06 10:09:00,44.4,27.4,29.68,South,176,4.0,13.0,51,0.00,,,0.00,Weather View 32 v70,2013-02-06 18:09:00,
2013-02-06 10:15:00,44.6,27.6,29.68,SSE,155,6.0,13.0,51,0.00,,,0.00,Weather View 32 v70,2013-02-06 18:15:00,
2013-02-06 10:24:00,44.6,27.1,29.68,SW,220,3.0,9.0,50,0.00,,,0.00,Weather View 32 v70,2013-02-06 18:24:00,
2013-02-06 10:29:00,44.8,27.2,29.68,SW,234,4.0,9.0,50,0.00,,,0.00,Weather View 32 v70,2013-02-06 18:29:00,
2013-02-06 10:35:00,44.8,27.2,29.68,SE,124,5.0,9.0,50,0.00,,,0.00,Weather View 32 v70,2013-02-06 18:35:00,
2013-02-06 10:44:00,45.1,27.6,29.68,SSW,209,0.0,9.0,50,0.00,,,0.00,Weather View 32 v70,2013-02-06 18:44:00,
2013-02-06 10:54:00,45.1,27.6,29.68,ESE,120,2.0,9.0,50,0.00,,,0.00,Weather View 32 v70,2013-02-06 18:54:00,
2013-02-06 11:04:00,45.5,27.4,29.68,South,190,3.0,9.0,49,0.00,,,0.00,Weather View 32 v70,2013-02-06 19:04:00,
2013-02-06 11:10:00,45.5,27.4,29.68,SE,145,4.0,9.0,49,0.00,,,0.00,Weather View 32 v70,2013-02-06 19:10:00,
2013-02-06 11:15:00,45.5,27.4,29.68,SSW,201,3.0,9.0,49,0.00,,,0.00,Weather View 32 v70,2013-02-06 19:15:00,
2013-02-06 11:20:00,45.5,26.9,29.68,WSW,237,5.0,9.0,48,0.00,,,0.00,Weather View 32 v70,2013-02-06 19:20:00,
2013-02-06 11:30:00,45.5,26.9,29.68,South,182,3.0,8.0,48,0.00,,,0.00,Weather View 32 v70,2013-02-06 19:30:00,
2013-02-06 11:35:00,45.7,27.1,29.68,South,189,4.0,8.0,48,0.00,,,0.00,Weather View 32 v70,2013-02-06 19:35:00,
2013-02-06 11:45:00,45.9,27.2,29.68,South,183,2.0,7.0,48,0.00,,,0.00,Weather View 32 v70,2013-02-06 19:45:00,
2013-02-06 11:54:00,45.9,26.2,29.68,South,175,0.0,7.0,46,0.00,,,0.00,Weather View 32 v70,2013-02-06 19:54:00,
2013-02-06 11:59:00,45.9,25.7,29.68,South,175,2.0,7.0,45,0.00,,,0.00,Weather View 32 v70,2013-02-06 19:59:00,
2013-02-06 12:05:00,45.9,26.2,29.68,South,175,0.0,7.0,46,0.00,,,0.00,Weather View 32 v70,2013-02-06 20:05:00,
2013-02-06 12:14:00,46.4,25.1,29.68,ESE,123,6.0,7.0,43,0.00,,,0.00,Weather View 32 v70,2013-02-06 20:14:00,
2013-02-06 12:25:00,46.4,25.1,29.65,South,172,3.0,7.0,43,0.00,,,0.00,Weather View 32 v70,2013-02-06 20:25:00,
2013-02-06 12:32:00,46.6,25.2,29.65,SSE,148,0.0,7.0,43,0.00,,,0.00,Weather View 32 v70,2013-02-06 20:32:00,
2013-02-06 12:40:00,46.6,25.2,29.65,SSE,152,0.0,6.0,43,0.00,,,0.00,Weather View 32 v70,2013-02-06 20:40:00,
2013-02-06 12:45:00,46.6,25.2,29.65,South,185,4.0,6.0,43,0.00,,,0.00,Weather View 32 v70,2013-02-06 20:45:00,
2013-02-06 12:54:00,46.6,26.3,29.65,SSE,159,6.0,6.0,45,0.00,,,0.00,Weather View 32 v70,2013-02-06 20:54:00,
2013-02-06 13:00:00,46.8,26.0,29.65,South,183,3.0,6.0,44,0.00,,,0.00,Weather View 32 v70,2013-02-06 21:00:00,
2013-02-06 13:09:00,46.9,23.8,29.65,SW,215,0.0,10.0,40,0.00,,,0.00,Weather View 32 v70,2013-02-06 21:09:00,
2013-02-06 13:14:00,46.9,24.4,29.65,SSW,193,3.0,10.0,41,0.00,,,0.00,Weather View 32 v70,2013-02-06 21:14:00,
2013-02-06 13:20:00,46.9,25.0,29.65,SSE,154,3.0,10.0,42,0.00,,,0.00,Weather View 32 v70,2013-02-06 21:20:00,
2013-02-06 13:25:00,46.9,25.6,29.65,South,173,4.0,10.0,43,0.00,,,0.00,Weather View 32 v70,2013-02-06 21:25:00,
2013-02-06 13:33:00,46.9,24.4,29.65,NW,312,3.0,10.0,41,0.00,,,0.00,Weather View 32 v70,2013-02-06 21:33:00,
2013-02-06 13:40:00,47.1,24.6,29.62,East,94,3.0,10.0,41,0.00,,,0.00,Weather View 32 v70,2013-02-06 21:40:00,
2013-02-06 13:50:00,47.5,25.5,29.62,South,184,4.0,10.0,42,0.00,,,0.00,Weather View 32 v70,2013-02-06 21:50:00,
2013-02-06 13:59:00,47.7,24.5,29.62,WNW,288,0.0,10.0,40,0.00,,,0.00,Weather View 32 v70,2013-02-06 21:59:00,
2013-02-06 14:10:00,48.0,25.4,29.62,SW,219,3.0,8.0,41,0.00,,,0.00,Weather View 32 v70,2013-02-06 22:10:00,
2013-02-06 14:19:00,48.0,24.8,29.62,NW,321,0.0,8.0,40,0.00,,,0.00,Weather View 32 v70,2013-02-06 22:19:00,
2013-02-06 14:25:00,48.0,26.0,29.62,SSW,212,0.0,8.0,42,0.00,,,0.00,Weather View 32 v70,2013-02-06 22:25:00,
2013-02-06 14:34:00,47.8,25.2,29.62,South,187,0.0,8.0,41,0.00,,,0.00,Weather View 32 v70,2013-02-06 22:34:00,
2013-02-06 14:39:00,47.7,25.7,29.62,SSW,210,5.0,10.0,42,0.00,,,0.00,Weather View 32 v70,2013-02-06 22:39:00,
2013-02-06 14:44:00,47.7,25.7,29.62,SSW,195,0.0,10.0,42,0.00,,,0.00,Weather View 32 v70,2013-02-06 22:44:00,
2013-02-06 14:49:00,47.8,26.9,29.62,SE,131,3.0,10.0,44,0.00,,,0.00,Weather View 32 v70,2013-02-06 22:49:00,
2013-02-06 14:54:00,47.8,26.9,29.62,South,172,3.0,10.0,44,0.00,,,0.00,Weather View 32 v70,2013-02-06 22:54:00,
2013-02-06 15:00:00,47.7,26.8,29.62,SSW,197,3.0,10.0,44,0.00,,,0.00,Weather View 32 v70,2013-02-06 23:00:00,
2013-02-06 15:05:00,47.7,25.7,29.62,SSE,164,4.0,10.0,42,0.00,,,0.00,Weather View 32 v70,2013-02-06 23:05:00,
2013-02-06 15:15:00,47.3,23.6,29.62,SE,131,2.0,10.0,39,0.00,,,0.00,Weather View 32 v70,2013-02-06 23:15:00,
2013-02-06 15:24:00,47.3,24.8,29.62,SSE,155,4.0,10.0,41,0.00,,,0.00,Weather View 32 v70,2013-02-06 23:24:00,
2013-02-06 15:29:00,47.1,25.2,29.62,SSW,207,3.0,10.0,42,0.00,,,0.00,Weather View 32 v70,2013-02-06 23:29:00,
2013-02-06 15:34:00,46.9,25.0,29.62,ESE,123,3.0,10.0,42,0.00,,,0.00,Weather View 32 v70,2013-02-06 23:34:00,
2013-02-06 15:40:00,46.6,25.2,29.62,SE,139,4.0,11.0,43,0.00,,,0.00,Weather View 32 v70,2013-02-06 23:40:00,
2013-02-06 15:49:00,46.2,26.0,29.62,South,187,3.0,11.0,45,0.00,,,0.00,Weather View 32 v70,2013-02-06 23:49:00,
2013-02-06 15:54:00,46.0,26.4,29.62,SSW,205,3.0,11.0,46,0.00,,,0.00,Weather View 32 v70,2013-02-06 23:54:00,
2013-02-06 15:59:00,45.9,27.2,29.62,SSE,165,2.0,11.0,48,0.00,,,0.00,Weather View 32 v70,2013-02-06 23:59:00,
2013-02-06 16:05:00,45.9,27.2,29.62,SE,132,4.0,11.0,48,0.00,,,0.00,Weather View 32 v70,2013-02-07 00:05:00,
2013-02-06 16:15:00,45.5,26.4,29.59,SW,228,3.0,11.0,47,0.00,,,0.00,Weather View 32 v70,2013-02-07 00:15:00,
2013-02-06 16:25:00,45.5,26.9,29.59,ESE,109,3.0,11.0,48,0.00,,,0.00,Weather View 32 v70,2013-02-07 00:25:00,
2013-02-06 16:35:00,45.3,27.3,29.59,SSW,213,4.0,11.0,49,0.00,,,0.00,Weather View 32 v70,2013-02-07 00:35:00,
2013-02-06 16:44:00,45.1,27.6,29.59,ESE,115,0.0,8.0,50,0.00,,,0.00,Weather View 32 v70,2013-02-07 00:44:00,
2013-02-06 16:49:00,45.0,27.9,29.59,ESE,115,2.0,8.0,51,0.00,,,0.00,Weather View 32 v70,2013-02-07 00:49:00,
2013-02-06 16:55:00,44.8,28.7,29.59,ESE,106,3.0,8.0,53,0.00,,,0.00,Weather View 32 v70,2013-02-07 00:55:00,
2013-02-06 17:04:00,44.6,29.4,29.59,ESE,108,0.0,5.0,55,0.00,,,0.00,Weather View 32 v70,2013-02-07 01:04:00,
2013-02-06 17:09:00,44.6,29.9,29.59,SSE,155,3.0,5.0,56,0.00,,,0.00,Weather View 32 v70,2013-02-07 01:09:00,
2013-02-06 17:15:00,44.6,30.3,29.59,SSE,155,0.0,5.0,57,0.00,,,0.00,Weather View 32 v70,2013-02-07 01:15:00,
2013-02-06 17:24:00,44.4,31.8,29.59,SSE,155,0.0,5.0,61,0.00,,,0.00,Weather View 32 v70,2013-02-07 01:24:00,
2013-02-06 17:30:00,44.2,32.0,29.59,SE,146,0.0,5.0,62,0.00,,,0.00,Weather View 32 v70,2013-02-07 01:30:00,
2013-02-06 17:36:00,44.2,32.4,29.59,SE,125,0.0,5.0,63,0.00,,,0.00,Weather View 32 v70,2013-02-07 01:36:00,
2013-02-06 17:45:00,44.2,32.8,29.59,ENE,72,0.0,5.0,64,0.00,,,0.00,Weather View 32 v70,2013-02-07 01:45:00,
2013-02-06 17:55:00,44.1,33.4,29.56,SE,136,0.0,4.0,66,0.00,,,0.00,Weather View 32 v70,2013-02-07 01:55:00,
2013-02-06 18:04:00,44.1,33.8,29.56,SE,136,0.0,4.0,67,0.00,,,0.00,Weather View 32 v70,2013-02-07 02:04:00,
2013-02-06 18:10:00,43.9,34.0,29.56,SE,136,0.0,3.0,68,0.00,,,0.00,Weather View 32 v70,2013-02-07 02:10:00,
2013-02-06 18:20:00,43.9,34.4,29.56,SE,136,0.0,3.0,69,0.00,,,0.00,Weather View 32 v70,2013-02-07 02:20:00,
2013-02-06 18:30:00,43.9,35.1,29.56,SE,136,0.0,3.0,71,0.00,,,0.00,Weather View 32 v70,2013-02-07 02:30:00,
2013-02-06 18:36:00,44.1,35.2,29.56,SE,136,0.0,3.0,71,0.00,,,0.00,Weather View 32 v70,2013-02-07 02:36:00,
2013-02-06 18:45:00,43.9,35.4,29.56,SE,136,0.0,3.0,72,0.00,,,0.00,Weather View 32 v70,2013-02-07 02:45:00,
2013-02-06 18:50:00,43.9,35.4,29.56,SE,136,0.0,3.0,72,0.00,,,0.00,Weather View 32 v70,2013-02-07 02:50:00,
2013-02-06 19:00:00,43.7,35.6,29.53,SE,136,0.0,3.0,73,0.00,,,0.00,Weather View 32 v70,2013-02-07 03:00:00,
2013-02-06 19:09:00,43.7,35.6,29.53,SE,136,0.0,3.0,73,0.00,,,0.00,Weather View 32 v70,2013-02-07 03:09:00,
2013-02-06 19:14:00,43.7,35.9,29.53,SE,136,0.0,3.0,74,0.00,,,0.00,Weather View 32 v70,2013-02-07 03:14:00,
2013-02-06 19:20:00,43.7,35.9,29.53,SE,136,0.0,3.0,74,0.00,,,0.00,Weather View 32 v70,2013-02-07 03:20:00,
2013-02-06 19:29:00,43.7,36.3,29.53,SE,136,0.0,3.0,75,0.00,,,0.00,Weather View 32 v70,2013-02-07 03:29:00,
2013-02-06 19:34:00,43.7,36.3,29.53,SE,136,0.0,3.0,75,0.00,,,0.00,Weather View 32 v70,2013-02-07 03:34:00,
2013-02-06 19:40:00,43.5,36.1,29.50,SE,136,0.0,3.0,75,0.00,,,0.00,Weather View 32 v70,2013-02-07 03:40:00,
2013-02-06 19:50:00,43.3,35.9,29.50,SSE,152,3.0,4.0,75,0.00,,,0.00,Weather View 32 v70,2013-02-07 03:50:00,
2013-02-06 19:59:00,43.2,36.1,29.50,SSW,205,0.0,4.0,76,0.00,,,0.00,Weather View 32 v70,2013-02-07 03:59:00,
2013-02-06 20:04:00,43.2,36.1,29.50,SSW,205,0.0,4.0,76,0.00,,,0.00,Weather View 32 v70,2013-02-07 04:04:00,
2013-02-06 20:14:00,43.0,35.9,29.50,ESE,111,4.0,4.0,76,0.00,,,0.00,Weather View 32 v70,2013-02-07 04:14:00,
2013-02-06 20:20:00,43.0,35.9,29.50,SE,139,0.0,4.0,76,0.00,,,0.00,Weather View 32 v70,2013-02-07 04:20:00,
2013-02-06 20:30:00,43.0,35.9,29.50,South,177,0.0,4.0,76,0.00,,,0.00,Weather View 32 v70,2013-02-07 04:30:00,
2013-02-06 20:37:00,43.2,36.1,29.50,South,177,0.0,4.0,76,0.00,,,0.00,Weather View 32 v70,2013-02-07 04:37:00,
2013-02-06 20:44:00,43.2,36.1,29.50,South,177,0.0,4.0,76,0.00,,,0.00,Weather View 32 v70,2013-02-07 04:44:00,
2013-02-06 20:49:00,43.2,36.1,29.50,South,177,0.0,4.0,76,0.00,,,0.00,Weather View 32 v70,2013-02-07 04:49:00,
2013-02-06 20:54:00,43.2,36.1,29.47,South,177,4.0,4.0,76,0.00,,,0.00,Weather View 32 v70,2013-02-07 04:54:00,
2013-02-06 21:04:00,43.2,36.1,29.47,South,177,0.0,4.0,76,0.00,,,0.00,Weather View 32 v70,2013-02-07 05:04:00,
2013-02-06 21:09:00,43.2,36.1,29.47,South,177,0.0,4.0,76,0.00,,,0.00,Weather View 32 v70,2013-02-07 05:09:00,
2013-02-06 21:19:00,43.0,35.9,29.47,South,177,4.0,4.0,76,0.00,,,0.00,Weather View 32 v70,2013-02-07 05:19:00,
2013-02-06 21:25:00,43.0,35.9,29.47,South,178,0.0,4.0,76,0.00,,,0.00,Weather View 32 v70,2013-02-07 05:25:00,
2013-02-06 21:35:00,43.0,36.3,29.47,South,177,0.0,4.0,77,0.00,,,0.00,Weather View 32 v70,2013-02-07 05:35:00,
2013-02-06 21:45:00,43.0,36.3,29.47,South,177,0.0,4.0,77,0.00,,,0.00,Weather View 32 v70,2013-02-07 05:45:00,
2013-02-06 21:50:00,43.0,36.3,29.47,South,177,0.0,4.0,77,0.00,,,0.00,Weather View 32 v70,2013-02-07 05:50:00,
2013-02-06 21:59:00,43.0,36.3,29.44,South,177,0.0,4.0,77,0.00,,,0.00,Weather View 32 v70,2013-02-07 05:59:00,
2013-02-06 22:05:00,42.8,36.1,29.44,South,177,0.0,4.0,77,0.00,,,0.00,Weather View 32 v70,2013-02-07 06:05:00,
2013-02-06 22:14:00,42.8,36.1,29.44,South,181,2.0,5.0,77,0.00,,,0.00,Weather View 32 v70,2013-02-07 06:14:00,
2013-02-06 22:20:00,42.8,36.1,29.44,South,181,3.0,5.0,77,0.00,,,0.00,Weather View 32 v70,2013-02-07 06:20:00,
2013-02-06 22:29:00,43.0,36.6,29.44,SSE,154,2.0,5.0,78,0.00,,,0.00,Weather View 32 v70,2013-02-07 06:29:00,
2013-02-06 22:34:00,43.0,36.6,29.44,SSE,153,0.0,5.0,78,0.00,,,0.00,Weather View 32 v70,2013-02-07 06:34:00,
2013-02-06 22:39:00,43.0,36.6,29.44,SSE,154,0.0,5.0,78,0.00,,,0.00,Weather View 32 v70,2013-02-07 06:39:00,
2013-02-06 22:45:00,43.2,36.4,29.44,ENE,61,3.0,5.0,77,0.00,,,0.00,Weather View 32 v70,2013-02-07 06:45:00,
2013-02-06 22:54:00,43.2,36.4,29.44,North,349,0.0,5.0,77,0.00,,,0.00,Weather View 32 v70,2013-02-07 06:54:00,
2013-02-06 22:59:00,43.2,36.1,29.44,North,349,0.0,5.0,76,0.00,,,0.00,Weather View 32 v70,2013-02-07 06:59:00,
2013-02-06 23:04:00,43.2,36.1,29.44,East,86,5.0,5.0,76,0.00,,,0.00,Weather View 32 v70,2013-02-07 07:04:00,
2013-02-06 23:10:00,43.2,36.1,29.44,SE,133,3.0,5.0,76,0.00,,,0.00,Weather View 32 v70,2013-02-07 07:10:00,
2013-02-06 23:19:00,43.2,35.8,29.44,East,97,0.0,6.0,75,0.00,,,0.00,Weather View 32 v70,2013-02-07 07:19:00,
2013-02-06 23:24:00,43.3,35.9,29.44,East,97,0.0,6.0,75,0.00,,,0.00,Weather View 32 v70,2013-02-07 07:24:00,
2013-02-06 23:30:00,43.3,35.6,29.44,SE,146,3.0,6.0,74,0.00,,,0.00,Weather View 32 v70,2013-02-07 07:30:00,
2013-02-06 23:39:00,43.3,35.6,29.44,SE,146,2.0,6.0,74,0.00,,,0.00,Weather View 32 v70,2013-02-07 07:39:00,
2013-02-06 23:44:00,43.5,35.4,29.44,SSW,193,0.0,6.0,73,0.00,,,0.00,Weather View 32 v70,2013-02-07 07:44:00,
2013-02-06 23:55:00,43.3,33.8,29.44,SSE,159,0.0,8.0,69,0.00,,,0.00,Weather View 32 v70,2013-02-07 07:55:00,